Evansville, IN

2:28 AM CDT on July 26, 2017 (GMT -0500)
Evansville Regional

Weather History for KEVV - February, 2012

Change the Weather History Date:

Friday, February 3, 2012

  Actual Average Record
Temperature  
Mean Temperature 47 °F 34 °F  
Max Temperature 59 °F 43 °F 69 °F (1924)
Min Temperature 35 °F 25 °F -8 °F (1965)
Degree Days  
Heating Degree Days 18 31  
Month to date heating degree days 47 94  
Since 1 July heating degree days 2372 2873  
Cooling Degree Days 0 0  
Month to date cooling degree days 0 0  
Year to date cooling degree days 0 0  
Moisture  
Dew Point 36 °F    
Average Humidity 65    
Maximum Humidity 92    
Minimum Humidity 37    
Precipitation  
Precipitation T in 0.12 in 1.35 in (1939)
Month to date precipitation T 0.36  
Year to date precipitation 3.39 3.46  
Snow  
Snow 0.00 in 0.10 in 3.40 in (1982)
Month to date snowfall 0.0 0.4  
Since 1 July snowfall 0.3 7.3  
Snow Depth 0.00 in    
Sea Level Pressure  
Sea Level Pressure 30.31 in    
Wind  
Wind Speed 6 mph (ENE)    
Max Wind Speed 15 mph    
Max Gust Speed 21 mph    
Visibility 10 miles    
Events Rain    
T = Trace of Precipitation, MM = Missing Value Source: NWS Daily Summary

Daily Weather History Graph

Daily Weather History Graph

Search for Another Location

Airport or City:

Trip Planner

Search our weather history database for the weather conditions in past years. The results will help you decide how hot, cold, wet, or windy it might be!

Date:

Astronomy

Feb. 03, 2012 Rise Set
Actual Time 6:53 AM CST 5:14 PM CST
Civil Twilight 6:25 AM CST 5:42 PM CST
Nautical Twilight 5:54 AM CST 6:14 PM CST
Astronomical Twilight 5:23 AM CST 6:44 PM CST
Moon 1:18 PM CST (2/3) 3:26 AM CST (2/3)
Length of Visible Light 11h 16m
Length of Day
10h 21m
Waxing Gibbous, 82% of the Moon is Illuminated
Feb 3
Waxing Gibbous
Feb 7
Full
Feb 14
Last Quarter
Feb 21
New
Feb 29
First Quarter

Hourly Weather History & Observations

Time (CST) Temp. Windchill Dew Point Humidity Pressure Visibility Wind Dir Wind Speed Gust Speed Precip Events Conditions
12:54 AM 39.0 °F 36.8 °F 34.0 °F 82% 30.38 in 10.0 mi NNE 3.5 mph - N/A   Clear
1:54 AM 41.0 °F - 34.0 °F 76% 30.38 in 10.0 mi Calm Calm - N/A   Clear
2:54 AM 37.0 °F 33.3 °F 33.1 °F 86% 30.39 in 10.0 mi NE 4.6 mph - N/A   Clear
3:54 AM 36.0 °F 31.1 °F 34.0 °F 93% 30.37 in 10.0 mi NE 5.8 mph - N/A   Clear
4:54 AM 35.1 °F 28.6 °F 32.0 °F 89% 30.38 in 10.0 mi NE 8.1 mph - N/A   Clear
5:54 AM 36.0 °F 31.1 °F 32.0 °F 86% 30.38 in 10.0 mi NE 5.8 mph - N/A   Clear
6:54 AM 36.0 °F 32.1 °F 32.0 °F 86% 30.39 in 10.0 mi ENE 4.6 mph - N/A   Clear
7:54 AM 37.0 °F 32.4 °F 33.1 °F 86% 30.38 in 10.0 mi ENE 5.8 mph - N/A   Clear
8:54 AM 45.0 °F 41.2 °F 37.0 °F 74% 30.36 in 10.0 mi ESE 6.9 mph - N/A   Clear
9:54 AM 48.0 °F - 36.0 °F 63% 30.38 in 10.0 mi East 8.1 mph - N/A   Clear
10:54 AM 53.1 °F - 36.0 °F 52% 30.37 in 10.0 mi East 10.4 mph - N/A   Clear
11:54 AM 59.0 °F - 33.1 °F 38% 30.32 in 10.0 mi ESE 12.7 mph 20.7 mph N/A   Clear
12:54 PM 57.0 °F - 34.0 °F 42% 30.29 in 10.0 mi SE 8.1 mph - N/A   Clear
1:54 PM 57.0 °F - 35.1 °F 44% 30.28 in 10.0 mi ESE 8.1 mph - N/A   Clear
2:54 PM 57.0 °F - 36.0 °F 45% 30.27 in 10.0 mi ENE 3.5 mph - N/A   Scattered Clouds
3:54 PM 55.9 °F - 37.9 °F 51% 30.27 in 10.0 mi ENE 3.5 mph - N/A   Overcast
4:54 PM 54.0 °F - 39.0 °F 57% 30.26 in 10.0 mi ENE 3.5 mph - N/A   Clear
5:54 PM 52.0 °F - 37.9 °F 59% 30.26 in 10.0 mi ENE 3.5 mph - N/A   Overcast
6:54 PM 51.1 °F - 39.9 °F 66% 30.25 in 10.0 mi ENE 4.6 mph - 0.00 in Rain Light Rain
7:54 PM 50.0 °F - 41.0 °F 71% 30.24 in 10.0 mi NE 4.6 mph - 0.00 in   Overcast
8:54 PM 52.0 °F - 37.9 °F 59% 30.22 in 10.0 mi NE 3.5 mph - N/A   Overcast
9:54 PM 53.1 °F - 37.0 °F 55% 30.20 in 10.0 mi East 4.6 mph - N/A   Overcast
10:54 PM 53.1 °F - 37.0 °F 55% 30.18 in 10.0 mi East 4.6 mph - 0.00 in Rain Light Rain
11:54 PM 53.1 °F - 37.0 °F 55% 30.17 in 10.0 mi ESE 6.9 mph - 0.00 in   Overcast